Location: Bednik
(45.3500°N, 16.3833°E)
Time: 05:33:11
(UTC+00:00)

Cosmos 1833 Rocket - Pass Details

Date: 08 August 2020
Orbit: 831 x 841 km, 71.0° (Epoch: 19 September)

Event Time Altitude Azimuth Distance (km) Brightness Sun altitude
Rises 19:08:52 0° 188° (S) 3,361 5.6 -9.6°
Reaches altitude 10° 19:11:20 10° 183° (S) 2,432 4.8 -9.9°
Maximum altitude 19:16:43 51° 109° (ESE) 1,039 2.8 -10.7°
Drops below altitude 10° 19:22:08 10° 35° (NE) 2,455 5.1 -11.5°
Sets 19:24:39 0° 31° (NNE) 3,395 5.9 -11.8°
